Location: Newark
(44.4156°N, 12.1972°E)
Time: 16:06:43
(UTC+00:00)

STARLINK-1117 - Pass Details

Date: 31 January 2020
Orbit: 348 x 350 km, 53.0° (Epoch: 18 February)

Event Time Altitude Azimuth Distance (km) Brightness Sun altitude
Rises 16:53:37 0° 306° (NW) 2,183 7.2 -6.7°
Reaches altitude 10° 16:55:42 10° 314° (NW) 1,337 6.0 -7.1°
Maximum altitude 16:58:33 41° 27° (NNE) 536 3.3 -7.6°
Drops below altitude 10° 17:01:24 10° 100° (E) 1,335 5.0 -8.1°
Enters shadow 17:01:36 - 101° (E) 1,416 5.2 -8.1°
